Weather History for Philip, SD

Change the Weather History Date:

Wednesday, November 17, 2010

  Actual Average Record
Temperature  
Mean Temperature 30 °F 33 °F  
Max Temperature 36 °F 46 °F 73 °F (1953)
Min Temperature 24 °F 20 °F -12 °F (1959)
Degree Days  
Heating Degree Days 35 32  
Month to date heating degree days 391 472  
Since 1 July heating degree days 871 1175  
Cooling Degree Days 0 0  
Month to date cooling degree days 0 0  
Year to date cooling degree days 847 818  
Moisture  
Dew Point 30 °F    
Average Humidity 88    
Maximum Humidity 100    
Minimum Humidity 75    
Precipitation  
Precipitation 0.02 in 0.02 in 0.24 in (1952)
Month to date precipitation 0.02 0.43  
Year to date precipitation 15.03 16.73  
Sea Level Pressure  
Sea Level Pressure 30.24 in    
Wind  
Wind Speed 4 mph (North)    
Max Wind Speed 13 mph    
Max Gust Speed 17 mph    
Visibility 7 miles    
Events Snow    
T = Trace of Precipitation, MM = Missing Value Source: NWS Daily Summary

Daily Weather History Graph

Daily Weather History Graph

Search for Another Location

Airport:

Trip Planner

Search our weather history database for the weather conditions in past years. The results will help you decide how hot, cold, wet, or windy it might be!

Date:

Astronomy

Nov. 17, 2010 Rise Set
Actual Time 6:44 AM MST 4:18 PM MST
Civil Twilight 6:12 AM MST 4:49 PM MST
Nautical Twilight 5:37 AM MST 5:24 PM MST
Astronomical Twilight 5:03 AM MST 5:58 PM MST
Moon 1:56 PM MST (11/17) 2:38 AM MST (11/17)
Length of Visible Light 10h 36m
Length of Day
9h 33m
Waxing Gibbous, 85% of the Moon is Illuminated
Nov 17
Waxing Gibbous
Nov 21
Full
Nov 28
Last Quarter
Dec 5
New
Dec 13
First Quarter

Hourly Weather History & Observations

Time (MST) Temp. Windchill Dew Point Humidity Pressure Visibility Wind Dir Wind Speed Gust Speed Precip Events Conditions
12:55 AM 27.0 °F 20.5 °F 25.0 °F 92% 30.06 in 10.0 mi West 5.8 mph - N/A   Overcast
1:55 AM 30.9 °F 25.2 °F 28.0 °F 89% 30.09 in 10.0 mi WNW 5.8 mph - N/A   Overcast
2:29 AM 32.0 °F 26.4 °F 28.4 °F 87% 30.07 in 10.0 mi WNW 5.8 mph - N/A   Overcast
2:55 AM 32.0 °F 28.7 °F 28.9 °F 88% 30.12 in 10.0 mi WNW 3.5 mph - N/A   Overcast
3:42 AM 33.8 °F 28.6 °F 30.2 °F 87% 30.11 in 10.0 mi North 5.8 mph - N/A   Overcast
3:55 AM 33.1 °F 27.7 °F 30.0 °F 89% 30.16 in 10.0 mi North 5.8 mph - N/A   Overcast
4:20 AM 33.8 °F 29.6 °F 30.2 °F 87% 30.13 in 6.0 mi North 4.6 mph - 0.00 in Snow Light Snow
4:29 AM 33.8 °F 29.6 °F 30.2 °F 87% 30.14 in 2.5 mi NNW 4.6 mph - 0.00 in Snow Light Snow
4:46 AM 33.8 °F 30.8 °F 30.2 °F 87% 30.15 in 3.0 mi West 3.5 mph - 0.00 in Snow Light Snow
4:55 AM 33.1 °F 27.7 °F 30.9 °F 92% 30.20 in 2.5 mi NW 5.8 mph - 0.00 in Snow Light Snow
5:05 AM 33.8 °F 29.6 °F 32.0 °F 93% 30.16 in 4.0 mi WNW 4.6 mph - 0.00 in Snow Light Snow
5:29 AM 33.8 °F 29.6 °F 32.0 °F 93% 30.17 in 2.5 mi NW 4.6 mph - 0.01 in Snow Light Snow
5:35 AM 33.8 °F 29.6 °F 32.0 °F 93% 30.17 in 3.0 mi NW 4.6 mph - 0.01 in Snow Light Snow
5:43 AM 33.8 °F 29.6 °F 32.0 °F 93% 30.18 in 5.0 mi NW 4.6 mph - 0.01 in Snow Light Snow
5:55 AM 33.1 °F 30.0 °F 32.0 °F 96% 30.23 in 2.5 mi NW 3.5 mph - 0.01 in Snow Light Snow
6:28 AM 33.8 °F 29.6 °F 30.2 °F 87% 30.20 in 3.0 mi North 4.6 mph - 0.01 in Snow Light Snow
6:38 AM 33.8 °F 29.6 °F 30.2 °F 87% 30.20 in 2.5 mi North 4.6 mph - 0.01 in Snow Light Snow
6:55 AM 33.1 °F 27.7 °F 30.9 °F 92% 30.25 in 2.0 mi NNE 5.8 mph - 0.01 in Snow Light Snow
7:21 AM 33.8 °F - 30.2 °F 87% 30.21 in 3.0 mi Calm Calm - 0.00 in Snow Light Snow
7:55 AM 33.1 °F - 30.9 °F 92% 30.29 in 4.0 mi Calm Calm - 0.00 in Snow Light Snow
8:06 AM 33.8 °F - 30.2 °F 87% 30.24 in 3.0 mi Calm Calm - 0.00 in Snow Light Snow
8:18 AM 33.8 °F - 30.2 °F 87% 30.24 in 2.5 mi Calm Calm - 0.00 in Snow Light Snow
8:29 AM 33.8 °F 30.8 °F 30.2 °F 87% 30.25 in 4.0 mi NW 3.5 mph - 0.00 in   Overcast
8:55 AM 33.1 °F 30.0 °F 30.9 °F 92% 30.32 in 7.0 mi WNW 3.5 mph - 0.00 in   Overcast
9:32 AM 35.6 °F 31.7 °F 30.2 °F 81% 30.28 in 10.0 mi North 4.6 mph - N/A   Overcast
9:55 AM 35.1 °F 31.0 °F 30.0 °F 82% 30.34 in 10.0 mi NNE 4.6 mph - N/A   Overcast
10:55 AM 35.1 °F - 28.9 °F 78% 30.34 in 10.0 mi Calm Calm - 0.00 in   Overcast
11:55 AM 35.1 °F 32.2 °F 30.0 °F 82% 30.34 in 10.0 mi WNW 3.5 mph - 0.00 in   Overcast
12:55 PM 35.1 °F - 30.9 °F 85% 30.33 in 10.0 mi Calm Calm - N/A   Overcast
1:55 PM 36.0 °F - 30.9 °F 82% 30.32 in 10.0 mi Calm Calm - N/A   Overcast
2:55 PM 36.0 °F - 30.0 °F 79% 30.32 in 10.0 mi Calm Calm - 0.00 in   Overcast
3:32 PM 35.6 °F - 28.4 °F 75% 30.27 in 10.0 mi Calm Calm - N/A   Overcast
3:55 PM 35.1 °F - 30.0 °F 82% 30.32 in 10.0 mi Calm Calm - N/A   Overcast
4:47 PM 33.8 °F 29.6 °F 30.2 °F 87% 30.27 in 10.0 mi ENE 4.6 mph - N/A   Overcast
4:55 PM 34.0 °F 28.8 °F 30.0 °F 85% 30.32 in 10.0 mi East 5.8 mph - N/A   Overcast
5:55 PM 34.0 °F 28.8 °F 30.9 °F 89% 30.32 in 10.0 mi East 5.8 mph - N/A   Overcast
6:55 PM 33.1 °F 28.7 °F 30.0 °F 89% 30.32 in 10.0 mi ESE 4.6 mph - N/A   Overcast
7:17 PM 33.8 °F 28.6 °F 30.2 °F 87% 30.26 in 10.0 mi ESE 5.8 mph - N/A   Overcast
7:32 PM 33.8 °F 27.7 °F 30.2 °F 87% 30.25 in 10.0 mi East 6.9 mph - N/A   Overcast
7:55 PM 33.1 °F 26.9 °F 30.0 °F 89% 30.31 in 10.0 mi East 6.9 mph - N/A   Overcast
8:55 PM 32.0 °F 25.6 °F 30.0 °F 92% 30.30 in 10.0 mi East 6.9 mph - N/A   Overcast
9:55 PM 32.0 °F 25.6 °F 30.9 °F 96% 30.28 in 10.0 mi East 6.9 mph - N/A   Overcast
10:55 PM 33.1 °F 26.9 °F 30.0 °F 89% 30.26 in 10.0 mi ESE 6.9 mph - N/A   Overcast
11:55 PM 34.0 °F 26.6 °F 30.0 °F 85% 30.25 in 10.0 mi SE 9.2 mph - N/A   Overcast